CW2882 Weather Reports


Display with metric or nautical units.
time (UTC)temp
F
wind
direction
speed
MPH
gust
MPH
rain 1hr
in
rain 24hr
in
rain mn
in
humidity
%
barometer
mb
20260906213039 67 329 2.0 5.0 0.00 0.00 0.00 73 1015.3
20260906211536 67 311 2.0 5.0 0.00 0.00 0.00 72 1015.4
20260906210033 65 122 1.0 5.0 0.00 0.00 0.00 75 1015.5
20260906204529 65 27 2.0 4.0 0.00 0.00 0.00 75 1015.6
20260906203026 64 196 1.0 4.0 0.00 0.00 0.00 76 1015.6
20260906201525 64 302 3.0 6.0 0.00 0.00 0.00 75 1015.9
20260906200023 64 136 0.0 4.0 0.00 0.00 0.00 76 1016.0
20260906194520 64 245 1.0 5.0 0.00 0.00 0.00 75 1016.2
20260906193019 64 228 1.0 6.0 0.00 0.00 0.00 75 1016.4
20260906191517 63 244 1.0 4.0 0.00 0.00 0.00 77 1016.5
20260906190013 62 220 1.0 5.0 0.00 0.00 0.00 78 1016.7
20260906184512 61 261 1.0 5.0 0.00 0.00 0.00 79 1016.8
20260906183015 61 255 1.0 5.0 0.00 0.00 0.00 80 1017.0
20260906181510 62 243 1.0 4.0 0.00 0.00 0.00 76 1017.0
20260906180007 61 253 1.0 3.0 0.00 0.00 0.00 76 1017.0
20260906174508 60 271 1.0 4.0 0.00 0.00 0.00 79 1017.1
20260906173118 58 284 0.0 2.0 0.00 0.00 0.00 80 1017.1
20260906171601 58 326 1.0 4.0 0.00 0.00 0.00 80 1017.2
20260906170124 58 42 1.0 4.0 0.00 0.00 0.00 83 1017.2
20260906164558 57 356 1.0 6.0 0.00 0.00 0.00 84 1017.1
20260906163051 56 37 0.0 2.0 0.00 0.00 0.00 88 1017.2
20260906161549 54 3 0.0 4.0 0.00 0.00 0.00 90 1017.3
20260906160048 54 27 1.0 6.0 0.00 0.00 0.00 90 1017.3
20260906154547 54 72 0.0 6.0 0.00 0.00 0.00 90 1017.4
20260906153047 54 1 0.0 4.0 0.00 0.00 0.00 91 1017.4
20260906151557 53 48 0.0 2.0 0.00 0.00 0.00 93 1017.4
20260906150046 53 134 0.0 0.0 0.00 0.00 0.00 94 1017.4
20260906144545 52 134 0.0 0.0 0.00 0.00 0.00 95 1017.4
20260906143056 52 134 0.0 0.0 0.00 0.00 0.00 96 1017.4
20260906141544 51 134 0.0 0.0 0.00 0.00 0.00 95 1017.3
20260906140049 50 134 0.0 0.0 0.00 0.00 0.00 95 1017.2
20260906134552 50 133 0.0 0.0 0.00 0.00 0.00 95 1017.0
20260906133043 50 124 0.0 0.0 0.00 0.00 0.00 95 1016.9
20260906131541 51 139 0.0 0.0 0.00 0.00 0.00 94 1016.8
20260906130040 51 139 0.0 0.0 0.00 0.00 0.00 94 1016.9
20260906124544 51 139 0.0 0.0 0.00 0.00 0.00 95 1016.8
20260906123109 51 147 0.0 0.0 0.00 0.00 0.00 94 1016.8
20260906121541 51 141 0.0 0.0 0.00 0.00 0.00 95 1017.0
20260906120035 51 131 0.0 0.0 0.00 0.00 0.00 95 1017.0
20260906114536 51 134 0.0 0.0 0.00 0.00 0.00 94 1017.2
20260906113037 51 134 0.0 0.0 0.00 0.00 0.00 93 1017.1
20260906111535 52 143 0.0 0.0 0.00 0.00 0.00 94 1017.1
20260906110031 52 115 0.0 0.0 0.00 0.00 0.00 94 1017.2
20260906104532 52 114 0.0 0.0 0.00 0.00 0.00 93 1017.1
20260906103030 52 147 0.0 0.0 0.00 0.00 0.00 92 1017.0
20260906101530 52 111 0.0 0.0 0.00 0.00 0.00 92 1017.0
20260906100028 53 119 0.0 0.0 0.00 0.00 0.00 91 1017.1
20260906094525 53 136 0.0 2.0 0.00 0.00 0.00 90 1017.1
20260906093025 53 170 0.0 2.0 0.00 0.00 0.00 90 1017.0
20260906091523 53 153 0.0 0.0 0.00 0.00 0.00 89 1017.1
20260906090022 54 152 0.0 0.0 0.00 0.00 0.00 89 1017.2
20260906084520 54 131 0.0 0.0 0.00 0.00 0.00 89 1017.3
20260906083020 55 140 0.0 0.0 0.00 0.00 0.00 87 1017.5
20260906081517 55 136 0.0 0.0 0.00 0.00 0.00 89 1017.5
20260906080025 54 131 0.0 1.0 0.00 0.00 0.00 91 1017.5
20260906074517 54 141 0.0 2.0 0.00 0.00 0.00 91 1017.6
20260906073013 54 190 1.0 2.0 0.00 0.00 0.00 90 1017.4
20260906071512 54 124 0.0 0.0 0.00 0.00 0.00 90 1017.5
20260906070010 54 153 0.0 2.0 0.00 0.00 0.00 90 1017.5
20260906064509 55 186 0.0 0.0 0.00 0.00 0.00 89 1017.6
20260906063009 55 253 0.0 2.0 0.00 0.00 0.00 89 1017.4
20260906061509 56 142 0.0 2.0 0.00 0.00 0.00 88 1017.2
20260906060008 55 139 0.0 2.0 0.00 0.00 0.00 88 1017.3
20260906054508 56 147 0.0 0.0 0.00 0.00 0.00 88 1017.5
20260906053007 56 200 0.0 0.0 0.00 0.00 0.00 87 1017.6
20260906051506 56 123 0.0 0.0 0.00 0.00 0.00 86 1017.7
20260906050007 57 123 0.0 0.0 0.00 0.00 0.00 85 1017.9
20260906044506 58 123 0.0 2.0 0.00 0.00 0.00 85 1017.8
20260906043006 58 102 0.0 1.0 0.00 0.00 0.00 84 1017.9
20260906041505 58 122 0.0 2.0 0.00 0.00 0.00 85 1017.9
20260906040005 58 171 0.0 2.0 0.00 0.00 0.00 85 1017.7
20260906034504 58 149 0.0 2.0 0.00 0.00 0.00 85 1017.6
20260906033010 59 195 0.0 2.0 0.00 0.00 0.00 82 1017.5
20260906031502 60 212 0.0 1.0 0.00 0.00 0.00 80 1017.5
20260906030002 62 160 0.0 0.0 0.00 0.00 0.00 78 1017.7
20260906024502 64 174 0.0 0.0 0.00 0.00 0.00 73 1017.7
20260906023001 66 86 0.0 0.0 0.00 0.00 0.00 70 1017.6
20260906021501 65 86 0.0 1.0 0.00 0.00 0.00 72 1017.6
20260906020107 65 75 0.0 3.0 0.00 0.00 0.00 71 1017.5
20260906014602 65 330 0.0 2.0 0.00 0.00 0.00 70 1017.3
20260906013110 67 347 0.0 2.0 0.00 0.00 0.00 70 1017.2
20260906011606 65 314 0.0 3.0 0.00 0.00 0.00 72 1017.2
20260906010059 66 316 0.0 3.0 0.00 0.00 0.00 72 1017.2
20260906004604 65 338 1.0 4.0 0.00 0.00 0.00 73 1017.2
20260906003103 65 30 1.0 5.0 0.00 0.00 0.00 72 1017.2
20260906001555 66 350 1.0 4.0 0.00 0.00 0.00 71 1017.1
20260906000058 67 291 0.0 6.0 0.00 0.00 0.00 70 1017.2
20260905234554 68 326 1.0 4.0 0.00 0.00 0.00 70 1017.2
20260905233054 68 245 0.0 3.0 0.00 0.00 0.00 71 1017.1
20260905231554 67 272 0.0 2.0 0.00 0.00 0.00 70 1017.1
20260905230054 67 313 0.0 4.0 0.00 0.00 0.00 71 1017.2
20260905224554 66 323 2.0 4.0 0.00 0.00 0.00 71 1017.3
20260905223051 68 321 1.0 4.0 0.00 0.00 0.00 69 1017.3
20260905221549 67 296 0.0 3.0 0.00 0.00 0.00 71 1017.3
20260905220048 66 351 1.0 5.0 0.00 0.00 0.00 71 1017.6
20260905214551 67 304 1.0 4.0 0.00 0.00 0.00 71 1017.6